[[[{"header":{"parameterUnit":"kt","parameterCategory":2,"dx":1,"dy":1,"la1":30.253999710083008,"la2":30.299108505249023,"lo1":-89.0895004272461,"lo2":-89.04439544677734,"nx":28,"ny":28,"refTime":"2022-09-21T09:00:00:Z","depth":0,"parameterNumber":1,"parameterNumberName":"U-component_of_WINDS"},"data":[-0.3456,-0.3332,-0.3332,-0.3189,-0.3164,-0.3066,-0.303,-0.2984,-0.2946,-0.2827,-0.2758,-0.2742,-0.2701,-0.2617,-0.254,-0.2534,-0.2501,-0.2461,-0.246,-0.2649,-0.2674,-0.2699,-0.273,-0.2453,-0.2453,-0.2265,-0.2264,-0.2262,-0.36,-0.3575,-0.3499,-0.3424,-0.3359,-0.34,-0.3343,-0.3285,-0.3195,-0.3146,-0.3077,-0.2971,-0.2886,-0.2857,-0.2774,-0.2715,-0.2727,-0.2692,-0.2696,-0.2689,-0.2891,-0.2923,-0.2684,-0.2684,-0.2684,-0.2684,-0.2684,-0.2684,-0.3862,-0.3787,-0.3742,-0.3659,-0.3621,-0.357,-0.3498,-0.3481,-0.3404,-0.3319,-0.333,-0.3226,-0.3175,-0.3071,-0.3035,-0.2953,-0.299,-0.295,-0.294,-0.293,-0.292,-0.3194,-0.2938,-0.2939,-0.294,-0.294,-0.2941,0,-0.4054,-0.4059,-0.3985,-0.3911,-0.385,-0.3791,-0.3736,-0.3691,-0.3696,-0.3631,-0.3538,-0.3484,-0.3375,-0.3285,-0.3205,-0.3174,-0.3205,-0.3207,-0.3179,-0.3173,-0.318,-0.3176,-0.3505,-0.3213,-0.3216,-0.3217,-0.3219,-0.322,-0.4319,-0.423,-0.4181,-0.4129,-0.4099,-0.4014,-0.3963,-0.3973,-0.3918,-0.385,-0.3782,-0.3693,-0.3621,-0.3469,-0.3444,-0.3361,-0.3375,-0.3264,-0.3362,-0.3361,-0.3373,-0.3378,-0.337,-0.3244,-0.3241,-0.3239,-0.3237,0,-0.4468,-0.4465,-0.4327,-0.4286,-0.4272,-0.4178,-0.4142,-0.4065,-0.4055,-0.3948,-0.3924,-0.3906,-0.3812,-0.3806,-0.3695,-0.3694,-0.3538,-0.3553,-0.3558,-0.356,-0.3461,-0.347,-0.3138,-0.3095,-0.3381,-0.3379,-0.3376,0,-0.4692,-0.4574,-0.4578,-0.4497,-0.4368,-0.4382,-0.4252,-0.423,-0.4186,-0.4102,-0.4138,-0.4057,-0.4061,-0.3979,-0.3977,-0.3848,-0.3827,-0.3819,-0.3819,-0.3815,-0.3816,-0.3782,-0.3796,-0.3824,-0.3825,-0.3827,-0.3828,0,-0.4926,-0.4788,-0.4659,-0.4626,-0.4567,-0.4505,-0.4478,-0.4428,-0.4375,-0.4307,-0.4273,-0.4191,-0.4145,-0.408,-0.4079,-0.4146,-0.392,-0.4011,-0.3911,-0.3911,-0.386,-0.3863,-0.3572,-0.383,-0.3831,-0.3831,-0.3832,0,-0.5105,-0.5039,-0.485,-0.4803,-0.4766,-0.4678,-0.4601,-0.4525,-0.4468,-0.4463,-0.4408,-0.4429,-0.4316,-0.4407,-0.425,-0.4338,-0.4291,-0.4272,-0.4265,-0.4252,-0.4354,-0.4191,-0.3916,-0.3887,-0.4244,-0.4248,-0.4251,0,-0.5374,-0.5182,-0.5193,-0.5012,-0.4923,-0.4971,-0.4874,-0.4823,-0.4807,-0.4728,-0.471,-0.4617,-0.4683,-0.4653,-0.4576,-0.4552,-0.4438,-0.4568,-0.4449,-0.4445,-0.4464,-0.4211,-0.4171,-0.3977,-0.4294,-0.429,-0.4287,0,-0.5581,-0.5512,-0.5478,-0.5442,-0.5378,-0.5302,-0.519,-0.5103,-0.505,-0.4987,-0.4893,-0.4761,-0.4807,-0.4755,-0.4763,-0.4683,-0.4516,-0.4741,-0.4739,-0.4701,-0.4315,-0.4279,-0.4247,-0.4538,-0.4533,-0.4529,-0.4321,0,-0.5854,-0.5757,-0.5667,-0.5584,-0.5525,-0.541,-0.5405,-0.5343,-0.5359,-0.5344,-0.5204,-0.5157,-0.5063,-0.5023,-0.5035,-0.4855,-0.4883,-0.4931,-0.5017,-0.4852,-0.4783,-0.4755,-0.5121,-0.5124,-0.5126,-0.5127,0,0,-0.6112,-0.5972,-0.5985,-0.5878,-0.5829,-0.5879,-0.5757,-0.5713,-0.5623,-0.5587,-0.5636,-0.5443,-0.54,-0.523,-0.5178,-0.5139,-0.5106,-0.5163,-0.4931,-0.4909,-0.4889,-0.4815,-0.4786,-0.5131,-0.5132,-0.5133,-0.5133,0,-0.621,-0.6172,-0.6052,-0.6009,-0.5946,-0.5937,-0.5908,-0.5852,-0.5836,-0.5699,-0.5739,-0.5653,-0.5496,-0.5447,-0.5401,-0.5185,-0.5217,-0.5156,-0.5043,-0.4952,-0.4928,-0.4906,-0.4829,-0.4801,-0.5138,-0.5138,-0.5138,0,-0.6413,-0.6375,-0.6316,-0.6206,-0.6164,-0.6069,-0.6161,-0.6055,-0.5984,-0.6038,-0.59,-0.5871,-0.5803,-0.5643,-0.557,-0.5612,-0.5319,-0.5408,-0.5395,-0.5386,-0.5297,-0.5267,-0.5241,-0.5588,-0.559,-0.5591,0,0,-0.6499,-0.6408,-0.6367,-0.6227,-0.6198,-0.6182,-0.6129,-0.6139,-0.6079,-0.6055,-0.6018,-0.5957,-0.5866,-0.5806,-0.5719,-0.5544,-0.553,-0.5464,-0.5443,-0.5426,-0.5407,-0.5314,-0.5285,-0.5598,-0.5598,-0.5598,0,0,-0.6538,-0.6487,-0.6514,-0.635,-0.6294,-0.6242,-0.6155,-0.6185,-0.6108,-0.612,-0.6126,-0.611,-0.596,-0.5928,-0.6012,-0.5749,-0.5835,-0.5815,-0.5775,-0.5748,-0.5727,-0.5737,-0.6095,0,0,0,0,0,-0.6636,-0.6495,-0.6519,-0.6491,-0.6349,-0.623,-0.6211,-0.6216,-0.6278,-0.621,-0.6184,-0.6222,-0.5975,-0.605,-0.6019,-0.5925,-0.5677,-0.5663,-0.5649,-0.5556,-0.5528,-0.5505,0,0,0,0,0,0,-0.6625,-0.659,-0.6523,-0.6465,-0.6434,-0.6235,-0.6341,-0.6339,-0.6286,-0.6295,-0.6226,-0.622,-0.6219,-0.6065,-0.6038,-0.5948,-0.6104,-0.5671,-0.5659,-0.5648,-0.5547,-0.5524,-0.5504,0,0,0,0,0,-0.6616,-0.6589,-0.636,-0.6467,-0.644,-0.6412,-0.6347,-0.6345,-0.6304,-0.6263,-0.6258,-0.6312,-0.6217,-0.6194,-0.6049,-0.5961,-0.6123,-0.6112,-0.5663,-0.5654,-0.5646,-0.5536,0,0,0,0,0,0,-0.661,-0.6585,-0.6355,-0.6347,-0.6521,-0.6424,-0.6409,-0.6351,-0.6275,-0.6269,-0.635,-0.6359,-0.6213,-0.6196,-0.6178,-0.5965,-0.6138,-0.6128,-0.6121,-0.5656,-0.5649,-0.5642,0,0,0,0,0,0,-0.66,-0.6578,-0.6351,-0.6419,-0.6418,-0.6434,-0.6421,-0.6297,-0.6273,-0.6366,-0.6371,-0.6355,-0.6238,-0.6197,-0.6183,-0.5989,-0.615,-0.614,-0.6133,-0.6129,-0.565,-0.5644,0,0,0,0,0,0,-0.6591,-0.6571,-0.6421,-0.642,-0.642,-0.6327,-0.6324,-0.6177,-0.6335,-0.6369,-0.6349,-0.6356,-0.6237,-0.6224,-0.6186,-0.5998,-0.5992,-0.6149,-0.6143,-0.6138,-0.6135,0,0,0,0,0,0,0,-0.6583,-0.6712,-0.6405,-0.6422,-0.6422,-0.627,-0.6267,-0.6265,-0.6337,-0.6342,-0.6348,-0.6353,-0.6206,-0.6195,-0.6184,-0.6005,0,0,-0.615,-0.6146,0,0,0,0,0,0,0,0,-0.672,-0.6714,-0.6405,-0.6403,-0.6401,-0.6269,-0.6267,-0.6266,-0.6338,-0.6342,-0.6347,-0.6351,-0.6203,-0.6194,-0.6185,0,0,0,0,0,0,0,0,0,0,0,0,0,0,0,-0.6404,-0.6403,0,-0.6269,-0.6267,-0.6266,-0.6338,-0.6342,-0.6346,-0.6349,-0.6201,-0.6193,-0.6186,0,0,0,0,0,0,0,0,0,0,0,0,0,0,0,0,0,0,0,0,0,0,0,0,0,0,0,0,0,0,0,0,0,0,0,0,0,0,0,0,0,0,0,0,0,0,0,0,0,0,0,0,0,0,0,0,0,0,0,0,0,0,0,0,0,0,0,0,0]}],[{"header":{"parameterUnit":"kt","parameterCategory":2,"dx":1,"dy":1,"la1":30.253999710083008,"la2":30.299108505249023,"lo1":-89.0895004272461,"lo2":-89.04439544677734,"nx":28,"ny":28,"refTime":"2022-09-21T09:00:00:Z","depth":0,"parameterNumber":2,"parameterNumberName":"V-component_of_WINDS"},"data":[3.0122,3.0305,3.0314,3.0526,3.0571,3.0715,3.077,3.0841,3.0901,3.1073,3.1173,3.1203,3.1265,3.1385,3.1493,3.1503,3.1545,3.1596,3.1598,3.136,3.1327,3.1296,3.1252,3.1607,3.1608,3.1841,3.1843,3.1845,2.9923,2.997,3.0089,3.021,3.0309,3.0262,3.0355,3.044,3.0572,3.065,3.0753,3.0906,3.1029,3.1078,3.1197,3.1277,3.1262,3.1307,3.1298,3.1307,3.1054,3.1007,3.1317,3.1316,3.1316,3.1316,3.1316,3.1316,2.9564,2.9676,2.9758,2.9887,2.9953,3.0034,3.0142,3.0178,3.0295,3.0426,3.042,3.0571,3.0651,3.0806,3.0862,3.0975,3.0927,3.0982,3.0994,3.1005,3.1012,3.0654,3.0999,3.0998,3.0997,3.0996,3.0996,0,2.9303,2.9305,2.9425,2.9544,2.9641,2.9737,2.9827,2.9895,2.9909,3.0006,3.0145,3.0228,3.0391,3.0522,3.0641,3.069,3.0652,3.0655,3.069,3.0689,3.0668,3.0671,3.0248,3.0645,3.0642,3.064,3.0638,3.0637,2.8933,2.9069,2.9166,2.9247,2.9302,2.9436,2.9517,2.9521,2.9607,2.9719,2.9818,2.9953,3.0061,3.0285,3.0329,3.0452,3.0435,3.0582,3.0453,3.0444,3.0425,3.0414,3.0422,3.0606,3.061,3.0613,3.0616,0,2.8721,2.8747,2.8963,2.9049,2.9074,2.9215,2.9287,2.9402,2.9429,2.959,2.9628,2.9671,2.981,2.9833,3.0,3.0006,3.0222,3.0208,3.0189,3.0184,3.0311,3.0295,3.0742,3.0795,3.0437,3.044,3.0443,0,2.8413,2.8594,2.862,2.8745,2.8941,2.8944,2.9138,2.9182,2.9259,2.9386,2.9352,2.9472,2.9485,2.9606,2.9618,2.98,2.9836,2.9848,2.9848,2.9848,2.9845,2.9891,2.987,2.9856,2.9854,2.9852,2.985,0,2.8073,2.8307,2.851,2.8568,2.8683,2.8778,2.883,2.892,2.9003,2.9115,2.9167,2.9299,2.937,2.9469,2.9482,2.9392,2.9711,2.9591,2.9723,2.9722,2.9791,2.9785,3.0177,2.9847,2.9846,2.9846,2.9845,0,2.7829,2.7946,2.8243,2.8334,2.8396,2.8534,2.8661,2.8786,2.8883,2.89,2.899,2.897,2.9143,2.9018,2.9251,2.9128,2.9197,2.9229,2.9239,2.9252,2.9111,2.9319,2.9698,2.9734,2.9264,2.9259,2.9255,0,2.7426,2.7738,2.7744,2.8028,2.8174,2.8123,2.8275,2.8366,2.8402,2.8528,2.8568,2.8716,2.863,2.868,2.8793,2.8838,2.8998,2.8819,2.899,2.8996,2.8955,2.9305,2.9352,2.9613,2.9194,2.9201,2.9205,0,2.7119,2.7266,2.7318,2.738,2.7508,2.7635,2.7812,2.7961,2.8043,2.8157,2.83,2.8515,2.8454,2.8541,2.8543,2.8659,2.889,2.8581,2.8584,2.8627,2.9171,2.9211,2.9255,2.8863,2.8871,2.8877,2.9157,0,2.6723,2.6889,2.7033,2.7187,2.7291,2.7477,2.7508,2.7611,2.76,2.7636,2.7855,2.7947,2.8102,2.8165,2.8161,2.8423,2.8382,2.8321,2.82,2.8434,2.8525,2.8564,2.8059,2.8055,2.8053,2.805,0,0,2.6326,2.6567,2.6577,2.6753,2.684,2.6791,2.6984,2.7065,2.7232,2.729,2.7224,2.754,2.762,2.7882,2.7958,2.8027,2.8072,2.7995,2.8325,2.8355,2.8383,2.8481,2.8521,2.8046,2.8045,2.8044,2.8043,0,2.6188,2.6275,2.6471,2.6554,2.6678,2.671,2.6757,2.6873,2.6907,2.7129,2.7085,2.7222,2.7485,2.7568,2.7645,2.7964,2.7922,2.801,2.8165,2.8296,2.833,2.836,2.8463,2.8501,2.8036,2.8036,2.8037,0,2.5884,2.5971,2.6072,2.6278,2.6362,2.6521,2.64,2.6579,2.6695,2.6638,2.6859,2.6916,2.7037,2.7287,2.7402,2.7345,2.7781,2.7657,2.7676,2.7688,2.7816,2.7857,2.7894,2.741,2.7408,2.7406,0,0,2.576,2.592,2.6019,2.6252,2.6307,2.6361,2.6452,2.6453,2.6565,2.6611,2.6684,2.6792,2.6941,2.7041,2.7186,2.746,2.748,2.7578,2.7608,2.7632,2.7657,2.7791,2.7832,2.7397,2.7396,2.7396,0,0,2.5703,2.5826,2.5798,2.6074,2.618,2.6295,2.6434,2.6402,2.6537,2.652,2.6533,2.6563,2.68,2.686,2.6736,2.7142,2.7023,2.7054,2.7095,2.7133,2.7162,2.714,2.6628,0,0,0,0,0,2.5581,2.5809,2.5783,2.5835,2.6101,2.6309,2.6342,2.6359,2.6269,2.6378,2.6433,2.6388,2.6793,2.6684,2.6734,2.6872,2.7282,2.7302,2.7322,2.7438,2.7477,2.751,0,0,0,0,0,0,2.5602,2.5665,2.5776,2.5901,2.596,2.6301,2.6153,2.6164,2.6258,2.6246,2.6378,2.6392,2.641,2.6659,2.6704,2.6835,2.6613,2.729,2.7307,2.7323,2.7451,2.7484,2.7511,0,0,0,0,0,2.5618,2.5669,2.6094,2.5897,2.595,2.6024,2.6145,2.6153,2.6226,2.6316,2.6329,2.623,2.6413,2.6453,2.6686,2.6814,2.6582,2.6599,2.7301,2.7315,2.7327,2.7467,0,0,0,0,0,0,2.563,2.5677,2.6104,2.612,2.5814,2.6005,2.6036,2.6143,2.6291,2.6305,2.6167,2.6156,2.6419,2.6448,2.6479,2.6805,2.6556,2.6573,2.6584,2.7312,2.7322,2.7332,0,0,0,0,0,0,2.565,2.5692,2.6113,2.6007,2.6011,2.5988,2.6016,2.6219,2.6293,2.6133,2.6128,2.616,2.6372,2.6446,2.647,2.6787,2.6536,2.6553,2.6564,2.6572,2.732,2.7329,0,0,0,0,0,0,2.5667,2.5703,2.6003,2.6006,2.601,2.6194,2.6168,2.6441,2.6202,2.6128,2.6182,2.6172,2.6372,2.6396,2.6464,2.6772,2.6783,2.6537,2.6548,2.6556,2.6561,0,0,0,0,0,0,0,2.5682,2.5439,2.6008,2.6006,2.6008,2.6271,2.6276,2.628,2.62,2.6192,2.6184,2.6176,2.6443,2.646,2.6479,2.6759,0,0,2.6535,2.6543,0,0,0,0,0,0,0,0,2.5424,2.5435,2.6008,2.6011,2.6015,2.6272,2.6275,2.6279,2.6199,2.6192,2.6186,2.6179,2.6447,2.6462,2.6477,0,0,0,0,0,0,0,0,0,0,0,0,0,0,0,2.6008,2.6011,0,2.6272,2.6275,2.6278,2.6198,2.6192,2.6187,2.6182,2.6451,2.6463,2.6476,0,0,0,0,0,0,0,0,0,0,0,0,0,0,0,0,0,0,0,0,0,0,0,0,0,0,0,0,0,0,0,0,0,0,0,0,0,0,0,0,0,0,0,0,0,0,0,0,0,0,0,0,0,0,0,0,0,0,0,0,0,0,0,0,0,0,0,0,0]}]]]